Project,Study,Ord_Occ,Event_Num,Cast_ID,Date_Time_UTC,Date_Time_PST,Lat_Dec,Lon_Dec,Sta_ID,Line,Sta,Depth,Pressure,PrQ,Temp1,Temp1Q,Temp2,Temp2Q,TempAve,Salt1,Salt1Q,Salt1_Corr,Salt2,Salt2Q,Salt2_Corr,SaltAve_Corr,Ox1,Ox1Q,Ox1_CruiseCorr,Ox1_StaCorr,Ox2,Ox2Q,Ox2_CruiseCorr,Ox2_StaCorr,OxAve_StaCorr,Ox1uM,Ox1uM_CruiseCorr,Ox1uM_StaCorr,Ox2uM,Ox2uM_CruiseCorr,Ox2uM_StaCorr,OxAveuM_StaCorr,FluorV,FluorQ,EstChl_CruiseCorr,EstChl_StaCorr,ISUSV,ISUSQ,EstNO3_CruiseCorr,EstNO3_StaCorr,SigThetaTS1,SigThetaTS1Q,SigThetaTS2,SigThetaTS2Q,BAT,XMiss,TransQ,pH,pHQ,SPAR,SPARQ,PAR,PARQ,PoT1,PoT2,DynHt,SVA,OxSat1,OxSat2,BTL_Depth,BTL_Temp,SaltB,OxB,OxBuM,Chl-a,Phaeo,NO3,NO2,NH4,PO4,SIL
CalCOFI,2101RL,018,,2101_018d,19-Jan-2021 12:22:26,19-Jan-2021 04:22:26,30.41172,-123.99576,090.0 120.0,090.0,120.0,3.000,3.021,,16.6078,,16.6086,,16.6082,33.2258,,33.2316,33.2207,,33.2227,33.2272,5.3719,,5.6221,5.7604,5.2746,,5.6002,5.7098,5.7351,234.228,245.4501,251.4037,229.991,260.9176,249.2016,250.3027,0.0399,,0.0787,0.1162, ,, , ,24.2445,,24.2403,,0.7054,83.8320,,,,2.0592E+00,,1.0000E-12,,16.6073,16.6081,0.0027,366.836,96.345,94.600,3,,33.2255,5.623,245.34,0.138,0.052,,,,,
CalCOFI,2101RL,018,,2101_018d,19-Jan-2021 12:22:39,19-Jan-2021 04:22:39,30.41172,-123.99576,090.0 120.0,090.0,120.0,4.000,4.027,,16.6084,,16.6071,,16.6078,33.2260,,33.2318,33.2205,,33.2225,33.2272,5.3720,,5.6222,5.7605,5.2906,,5.6171,5.7272,5.7439,234.235,245.4574,251.4112,230.687,260.9254,249.9588,250.6850,0.0408,,0.0861,0.1211, ,, , ,24.2445,,24.2406,,0.7032,83.8775,,,,2.5232E+00,,1.0000E-12,,16.6077,16.6065,0.0130,366.867,96.348,94.883,,,,,,,,,,,,
CalCOFI,2101RL,018,,2101_018d,19-Jan-2021 12:22:46,19-Jan-2021 04:22:46,30.41170,-123.99575,090.0 120.0,090.0,120.0,5.000,5.034,,16.6067,,16.6064,,16.6066,33.2258,,33.2316,33.2205,,33.2225,33.2271,5.3642,,5.6141,5.7522,5.3086,,5.6363,5.7467,5.7495,233.895,245.1015,251.0481,231.470,260.5473,250.8106,250.9294,0.0397,,0.0771,0.1152, ,, , ,24.2448,,24.2407,,0.7031,83.8795,,,,2.4782E+00,,1.0000E-12,,16.6059,16.6056,0.0187,366.871,96.206,95.204,,,,,,,,,,,,
CalCOFI,2101RL,018,,2101_018d,19-Jan-2021 12:22:48,19-Jan-2021 04:22:48,30.41172,-123.99572,090.0 120.0,090.0,120.0,6.000,6.041,,16.6141,,16.6151,,16.6146,33.2266,,33.2324,33.2212,,33.2232,33.2278,5.3638,,5.6137,5.7518,5.3206,,5.6490,5.7598,5.7558,233.878,245.0837,251.0299,231.993,260.5284,251.3796,251.2048,0.0391,,0.0722,0.1120, ,, , ,24.2437,,24.2393,,0.7032,83.8784,,,,2.8155E+00,,1.0000E-12,,16.6131,16.6141,0.0227,367.008,96.213,95.436,,,,,,,,,,,,
CalCOFI,2101RL,018,,2101_018d,19-Jan-2021 12:22:49,19-Jan-2021 04:22:49,30.41172,-123.99572,090.0 120.0,090.0,120.0,7.000,7.048,,16.6162,,16.6170,,16.6166,33.2266,,33.2324,33.2213,,33.2233,33.2279,5.3642,,5.6141,5.7522,5.3217,,5.6502,5.7610,5.7566,233.894,245.1004,251.0470,232.042,260.5462,251.4329,251.2400,0.0391,,0.0722,0.1120, ,, , ,24.2432,,24.2390,,0.7024,83.8955,,,,2.4378E+00,,1.0000E-12,,16.6151,16.6159,0.0264,367.085,96.223,95.459,,,,,,,,,,,,
CalCOFI,2101RL,018,,2101_018d,19-Jan-2021 12:22:50,19-Jan-2021 04:22:50,30.41172,-123.99573,090.0 120.0,090.0,120.0,8.000,8.055,,16.6143,,16.6145,,16.6144,33.2263,,33.2321,33.2211,,33.2231,33.2276,5.3616,,5.6114,5.7494,5.3286,,5.6575,5.7685,5.7590,233.779,244.9801,250.9242,232.345,260.4183,251.7626,251.3434,0.0388,,0.0697,0.1103, ,, , ,24.2435,,24.2395,,0.7021,83.9005,,,,1.8859E+00,,1.0000E-12,,16.6130,16.6132,0.0301,367.090,96.172,95.580,,,,,,,,,,,,
CalCOFI,2101RL,018,,2101_018d,19-Jan-2021 12:22:51,19-Jan-2021 04:22:51,30.41172,-123.99574,090.0 120.0,090.0,120.0,9.000,9.062,,16.6155,,16.6154,,16.6155,33.2264,,33.2322,33.2211,,33.2231,33.2277,5.3760,,5.6264,5.7648,5.3396,,5.6692,5.7805,5.7727,234.410,245.6406,251.5981,232.824,261.1200,252.2837,251.9409,0.0406,,0.0845,0.1200, ,, , ,24.2433,,24.2393,,0.7046,83.8493,,,,2.0171E+00,,1.0000E-12,,16.6140,16.6139,0.0338,367.140,96.434,95.778,,,,,,,,,,,,
CalCOFI,2101RL,018,,2101_018d,19-Jan-2021 12:22:53,19-Jan-2021 04:22:53,30.41170,-123.99574,090.0 120.0,090.0,120.0,10.000,10.069,,16.6162,,16.6164,,16.6163,33.2265,,33.2323,33.2212,,33.2232,33.2278,5.3691,,5.6192,5.7574,5.3228,,5.6513,5.7622,5.7598,234.110,245.3265,251.2777,232.089,260.7864,251.4841,251.3809,0.0386,,0.0681,0.1093, ,, , ,24.2433,,24.2391,,0.7039,83.8651,,,,2.3256E+00,,1.0000E-12,,16.6146,16.6148,0.0375,367.177,96.312,95.478,10,,33.2242,5.602,244.42,0.149,0.052,,,,,
CalCOFI,2101RL,018,,2101_018d,19-Jan-2021 12:22:55,19-Jan-2021 04:22:55,30.41170,-123.99574,090.0 120.0,090.0,120.0,11.000,11.076,,16.6183,,16.6179,,16.6181,33.2266,,33.2324,33.2213,,33.2233,33.2279,5.3677,,5.6177,5.7559,5.3275,,5.6563,5.7673,5.7616,234.048,245.2616,251.2115,232.293,260.7174,251.7060,251.4588,0.0386,,0.0681,0.1093, ,, , ,24.2429,,24.2389,,0.7054,83.8321,,,,2.5364E+00,,1.0000E-12,,16.6165,16.6162,0.0412,367.246,96.291,95.564,,,,,,,,,,,,
CalCOFI,2101RL,018,,2101_018d,19-Jan-2021 12:22:57,19-Jan-2021 04:22:57,30.41170,-123.99574,090.0 120.0,090.0,120.0,12.000,12.083,,16.6192,,16.6195,,16.6194,33.2266,,33.2324,33.2214,,33.2234,33.2279,5.3727,,5.6230,5.7613,5.3279,,5.6568,5.7677,5.7645,234.266,245.4898,251.4443,232.314,260.9599,251.7289,251.5866,0.0393,,0.0738,0.1130, ,, , ,24.2428,,24.2387,,0.7054,83.8318,,,,2.3685E+00,,1.0000E-12,,16.6173,16.6175,0.0449,367.292,96.382,95.576,,,,,,,,,,,,
CalCOFI,2101RL,018,,2101_018d,19-Jan-2021 12:23:00,19-Jan-2021 04:23:00,30.41168,-123.99576,090.0 120.0,090.0,120.0,13.000,13.090,,16.6189,,16.6192,,16.6191,33.2266,,33.2324,33.2213,,33.2233,33.2279,5.3694,,5.6195,5.7577,5.3216,,5.6501,5.7609,5.7593,234.120,245.3370,251.2884,232.040,260.7975,251.4308,251.3596,0.0390,,0.0714,0.1114, ,, , ,24.2428,,24.2387,,0.7034,83.8746,,,,2.1715E+00,,1.0000E-12,,16.6168,16.6171,0.0486,367.320,96.321,95.463,,,,,,,,,,,,
CalCOFI,2101RL,018,,2101_018d,19-Jan-2021 12:23:10,19-Jan-2021 04:23:10,30.41167,-123.99580,090.0 120.0,090.0,120.0,14.000,14.097,,16.6194,,16.6196,,16.6195,33.2266,,33.2324,33.2214,,33.2234,33.2279,5.3725,,5.6228,5.7610,5.3156,,5.6437,5.7544,5.7577,234.256,245.4794,251.4336,231.777,260.9487,251.1446,251.2891,0.0391,,0.0722,0.1120, ,, , ,24.2428,,24.2387,,0.7026,83.8900,,,,1.8392E+00,,1.0000E-12,,16.6171,16.6173,0.0531,367.355,96.378,95.355,,,,,,,,,,,,
CalCOFI,2101RL,018,,2101_018d,19-Jan-2021 12:23:14,19-Jan-2021 04:23:14,30.41168,-123.99580,090.0 120.0,090.0,120.0,15.000,15.104,,16.6191,,16.6193,,16.6192,33.2266,,33.2324,33.2214,,33.2234,33.2279,5.3668,,5.6168,5.7550,5.3120,,5.6399,5.7504,5.7527,234.009,245.2208,251.1698,231.620,260.6741,250.9738,251.0718,0.0395,,0.0755,0.1141, ,, , ,24.2429,,24.2388,,0.7023,83.8979,,,,1.8491E+00,,1.0000E-12,,16.6167,16.6169,0.0575,367.381,96.276,95.290,,,,,,,,,,,,
CalCOFI,2101RL,018,,2101_018d,19-Jan-2021 12:23:20,19-Jan-2021 04:23:20,30.41165,-123.99580,090.0 120.0,090.0,120.0,16.000,16.111,,16.6199,,16.6203,,16.6201,33.2266,,33.2324,33.2214,,33.2234,33.2279,5.3605,,5.6102,5.7482,5.3224,,5.6509,5.7617,5.7550,233.732,244.9309,250.8740,232.075,260.3661,251.4688,251.1714,0.0393,,0.0738,0.1130, ,, , ,24.2427,,24.2386,,0.7028,83.8866,,,,1.8672E+00,,1.0000E-12,,16.6174,16.6177,0.0612,367.427,96.163,95.479,,,,,,,,,,,,
CalCOFI,2101RL,018,,2101_018d,19-Jan-2021 12:23:25,19-Jan-2021 04:23:25,30.41166,-123.99578,090.0 120.0,090.0,120.0,17.000,17.118,,16.6207,,16.6208,,16.6208,33.2269,,33.2327,33.2217,,33.2237,33.2282,5.3636,,5.6134,5.7515,5.3089,,5.6366,5.7471,5.7493,233.869,245.0743,251.0203,231.485,260.5184,250.8270,250.9237,0.0391,,0.0722,0.1120, ,, , ,24.2428,,24.2388,,0.7021,83.9018,,,,1.8444E+00,,1.0000E-12,,16.6180,16.6181,0.0649,367.450,96.222,95.238,,,,,,,,,,,,
CalCOFI,2101RL,018,,2101_018d,19-Jan-2021 12:23:26,19-Jan-2021 04:23:26,30.41166,-123.99580,090.0 120.0,090.0,120.0,18.000,18.125,,16.6211,,16.6211,,16.6211,33.2268,,33.2326,33.2216,,33.2236,33.2281,5.3570,,5.6065,5.7445,5.3177,,5.6459,5.7566,5.7506,233.583,244.7749,250.7149,231.867,260.2004,251.2425,250.9787,0.0396,,0.0763,0.1146, ,, , ,24.2427,,24.2387,,0.7029,83.8856,,,,1.8474E+00,,1.0000E-12,,16.6182,16.6182,0.0686,367.497,96.105,95.395,,,,,,,,,,,,
CalCOFI,2101RL,018,,2101_018d,19-Jan-2021 12:23:29,19-Jan-2021 04:23:29,30.41167,-123.99581,090.0 120.0,090.0,120.0,19.000,19.132,,16.6208,,16.6205,,16.6207,33.2268,,33.2326,33.2215,,33.2235,33.2281,5.3619,,5.6117,5.7497,5.3177,,5.6459,5.7566,5.7532,233.795,244.9968,250.9413,231.869,260.4361,251.2447,251.0930,0.0400,,0.0796,0.1168, ,, , ,24.2428,,24.2388,,0.7026,83.8903,,,,1.8474E+00,,1.0000E-12,,16.6177,16.6174,0.0724,367.520,96.191,95.395,,,,,,,,,,,,
CalCOFI,2101RL,018,,2101_018d,19-Jan-2021 12:23:32,19-Jan-2021 04:23:32,30.41168,-123.99582,090.0 120.0,090.0,120.0,20.000,20.139,,16.6208,,16.6208,,16.6208,33.2268,,33.2326,33.2215,,33.2235,33.2281,5.3585,,5.6081,5.7461,5.3274,,5.6562,5.7672,5.7567,233.647,244.8419,250.7832,232.291,260.2715,251.7038,251.2435,0.0394,,0.0746,0.1136, ,, , ,24.2428,,24.2388,,0.7027,83.8886,,,,1.8474E+00,,1.0000E-12,,16.6176,16.6176,0.0762,367.549,96.130,95.569,,,,,,,,,,,,
CalCOFI,2101RL,018,,2101_018d,19-Jan-2021 12:23:33,19-Jan-2021 04:23:33,30.41166,-123.99580,090.0 120.0,090.0,120.0,21.000,21.146,,16.6201,,16.6201,,16.6201,33.2265,,33.2323,33.2213,,33.2233,33.2278,5.3568,,5.6063,5.7443,5.3185,,5.6468,5.7575,5.7509,233.571,244.7623,250.7021,231.902,260.1870,251.2806,250.9914,0.0392,,0.0730,0.1125, ,, , ,24.2428,,24.2388,,0.7036,83.8704,,,,1.8474E+00,,1.0000E-12,,16.6167,16.6167,0.0799,367.585,96.097,95.408,,,,,,,,,,,,
CalCOFI,2101RL,018,,2101_018d,19-Jan-2021 12:23:37,19-Jan-2021 04:23:37,30.41164,-123.99578,090.0 120.0,090.0,120.0,22.000,22.153,,16.6194,,16.6200,,16.6197,33.2264,,33.2322,33.2213,,33.2233,33.2278,5.3615,,5.6112,5.7493,5.3109,,5.6387,5.7492,5.7493,233.779,244.9801,250.9242,231.570,260.4183,250.9194,250.9218,0.0392,,0.0730,0.1125, ,, , ,24.2429,,24.2388,,0.7038,83.8654,,,,1.8474E+00,,1.0000E-12,,16.6158,16.6165,0.0839,367.603,96.182,95.271,,,,,,,,,,,,
CalCOFI,2101RL,018,,2101_018d,19-Jan-2021 12:23:39,19-Jan-2021 04:23:39,30.41163,-123.99579,090.0 120.0,090.0,120.0,23.000,23.160,,16.6195,,16.6193,,16.6194,33.2264,,33.2322,33.2213,,33.2233,33.2278,5.3537,,5.6031,5.7410,5.3132,,5.6411,5.7517,5.7464,233.438,244.6231,250.5600,231.671,260.0391,251.0293,250.7947,0.0391,,0.0722,0.1120, ,, , ,24.2430,,24.2390,,0.7029,83.8852,,,,1.8474E+00,,1.0000E-12,,16.6158,16.6156,0.0877,367.633,96.042,95.311,,,,,,,,,,,,
CalCOFI,2101RL,018,,2101_018d,19-Jan-2021 12:23:41,19-Jan-2021 04:23:41,30.41162,-123.99580,090.0 120.0,090.0,120.0,24.000,24.167,,16.6153,,16.6153,,16.6153,33.2260,,33.2318,33.2207,,33.2227,33.2273,5.3605,,5.6102,5.7482,5.3056,,5.6331,5.7435,5.7459,233.736,244.9350,250.8783,231.341,260.3705,250.6703,250.7743,0.0387,,0.0689,0.1098, ,, , ,24.2436,,24.2396,,0.7021,83.9020,,,,1.8474E+00,,1.0000E-12,,16.6115,16.6114,0.0914,367.605,96.156,95.167,,,,,,,,,,,,
CalCOFI,2101RL,018,,2101_018d,19-Jan-2021 12:23:43,19-Jan-2021 04:23:43,30.41162,-123.99580,090.0 120.0,090.0,120.0,25.000,25.174,,16.6169,,16.6162,,16.6166,33.2262,,33.2320,33.2209,,33.2229,33.2275,5.3497,,5.5989,5.7367,5.3042,,5.6316,5.7420,5.7394,233.260,244.4368,250.3699,231.280,259.8412,250.6039,250.4869,0.0387,,0.0689,0.1098, ,, , ,24.2435,,24.2396,,0.7023,83.8971,,,,1.8474E+00,,1.0000E-12,,16.6129,16.6121,0.0951,367.651,95.964,95.144,25,,33.2238,5.600,244.35,0.147,0.045,,,,,
CalCOFI,2101RL,018,,2101_018d,19-Jan-2021 12:23:44,19-Jan-2021 04:23:44,30.41162,-123.99580,090.0 120.0,090.0,120.0,26.000,26.181,,16.6190,,16.6180,,16.6185,33.2264,,33.2322,33.2210,,33.2230,33.2276,5.3434,,5.5923,5.7300,5.3210,,5.6494,5.7602,5.7451,232.990,244.1541,250.0816,232.014,259.5409,251.4025,250.7421,0.0395,,0.0755,0.1141, ,, , ,24.2431,,24.2393,,0.7021,83.9008,,,,1.8474E+00,,1.0000E-12,,16.6149,16.6139,0.0988,367.715,95.856,95.450,,,,,,,,,,,,
CalCOFI,2101RL,018,,2101_018d,19-Jan-2021 12:23:46,19-Jan-2021 04:23:46,30.41162,-123.99583,090.0 120.0,090.0,120.0,27.000,27.188,,16.6182,,16.6181,,16.6182,33.2263,,33.2321,33.2211,,33.2231,33.2276,5.3581,,5.6077,5.7457,5.3270,,5.6558,5.7668,5.7563,233.629,244.8230,250.7640,232.273,260.2515,251.6842,251.2241,0.0387,,0.0689,0.1098, ,, , ,24.2433,,24.2393,,0.7025,83.8938,,,,1.8474E+00,,1.0000E-12,,16.6138,16.6138,0.1025,367.730,96.118,95.557,,,,,,,,,,,,
CalCOFI,2101RL,018,,2101_018d,19-Jan-2021 12:23:48,19-Jan-2021 04:23:48,30.41162,-123.99585,090.0 120.0,090.0,120.0,28.000,28.195,,16.6184,,16.6186,,16.6185,33.2262,,33.2320,33.2210,,33.2230,33.2275,5.3617,,5.6115,5.7495,5.3023,,5.6296,5.7399,5.7447,233.784,244.9853,250.9295,231.195,260.4239,250.5115,250.7205,0.0385,,0.0673,0.1087, ,, , ,24.2432,,24.2391,,0.7027,83.8882,,,,2.2124E+00,,1.0000E-12,,16.6139,16.6141,0.1062,367.773,96.182,95.114,,,,,,,,,,,,
CalCOFI,2101RL,018,,2101_018d,19-Jan-2021 12:23:52,19-Jan-2021 04:23:52,30.41162,-123.99585,090.0 120.0,090.0,120.0,29.000,29.202,,16.6196,,16.6201,,16.6199,33.2263,,33.2321,33.2211,,33.2231,33.2276,5.3520,,5.6013,5.7392,5.2932,,5.6199,5.7300,5.7346,233.363,244.5446,250.4799,230.801,259.9557,250.0828,250.2814,0.0394,,0.0746,0.1136, ,, , ,24.2430,,24.2390,,0.7024,83.8947,,,,1.8663E+00,,1.0000E-12,,16.6150,16.6155,0.1099,367.821,96.011,94.954,,,,,,,,,,,,
CalCOFI,2101RL,018,,2101_018d,19-Jan-2021 12:23:54,19-Jan-2021 04:23:54,30.41162,-123.99584,090.0 120.0,090.0,120.0,30.000,30.209,,16.6229,,16.6232,,16.6231,33.2267,,33.2325,33.2216,,33.2236,33.2281,5.3540,,5.6034,5.7413,5.2966,,5.6235,5.7337,5.7375,233.452,244.6378,250.5750,230.948,260.0547,250.2427,250.4089,0.0390,,0.0714,0.1114, ,, , ,24.2426,,24.2387,,0.7022,83.8979,,,,2.0334E+00,,1.0000E-12,,16.6181,16.6184,0.1136,367.890,96.054,95.021,,,,,,,,,,,,
CalCOFI,2101RL,018,,2101_018d,19-Jan-2021 12:23:55,19-Jan-2021 04:23:55,30.41161,-123.99585,090.0 120.0,090.0,120.0,31.000,31.216,,16.6228,,16.6223,,16.6226,33.2267,,33.2325,33.2214,,33.2234,33.2280,5.3511,,5.6004,5.7382,5.2954,,5.6222,5.7324,5.7353,233.325,244.5048,250.4394,230.894,259.9135,250.1840,250.3117,0.0394,,0.0746,0.1136, ,, , ,24.2427,,24.2388,,0.7024,83.8958,,,,2.1101E+00,,1.0000E-12,,16.6178,16.6173,0.1173,367.917,96.002,94.997,,,,,,,,,,,,
CalCOFI,2101RL,018,,2101_018d,19-Jan-2021 12:23:57,19-Jan-2021 04:23:57,30.41160,-123.99586,090.0 120.0,090.0,120.0,32.000,32.223,,16.6221,,16.6224,,16.6223,33.2265,,33.2323,33.2214,,33.2234,33.2279,5.3556,,5.6051,5.7430,5.2965,,5.6234,5.7336,5.7383,233.519,244.7079,250.6465,230.945,260.1292,250.2395,250.4430,0.0392,,0.0730,0.1125, ,, , ,24.2427,,24.2387,,0.7026,83.8918,,,,2.3026E+00,,1.0000E-12,,16.6169,16.6173,0.1211,367.948,96.080,95.018,,,,,,,,,,,,
CalCOFI,2101RL,018,,2101_018d,19-Jan-2021 12:24:00,19-Jan-2021 04:24:00,30.41158,-123.99586,090.0 120.0,090.0,120.0,33.000,33.230,,16.6222,,16.6223,,16.6223,33.2264,,33.2322,33.2212,,33.2232,33.2277,5.3516,,5.6009,5.7387,5.2984,,5.6254,5.7356,5.7372,233.346,244.5268,250.4618,231.026,259.9368,250.3276,250.3947,0.0380,,0.0632,0.1060, ,, , ,24.2427,,24.2386,,0.7023,83.8962,,,,2.4981E+00,,1.0000E-12,,16.6169,16.6170,0.1248,367.983,96.009,95.051,,,,,,,,,,,,
CalCOFI,2101RL,018,,2101_018d,19-Jan-2021 12:24:01,19-Jan-2021 04:24:01,30.41158,-123.99586,090.0 120.0,090.0,120.0,34.000,34.237,,16.6223,,16.6226,,16.6225,33.2265,,33.2323,33.2213,,33.2233,33.2278,5.3454,,5.5944,5.7321,5.2942,,5.6210,5.7311,5.7316,233.076,244.2442,250.1734,230.845,259.6366,250.1307,250.1521,0.0382,,0.0648,0.1071, ,, , ,24.2428,,24.2387,,0.7030,83.8824,,,,2.1202E+00,,1.0000E-12,,16.6169,16.6172,0.1285,368.008,95.898,94.977,,,,,,,,,,,,
CalCOFI,2101RL,018,,2101_018d,19-Jan-2021 12:24:03,19-Jan-2021 04:24:03,30.41158,-123.99586,090.0 120.0,090.0,120.0,35.000,35.244,,16.6222,,16.6223,,16.6223,33.2265,,33.2323,33.2213,,33.2233,33.2278,5.3385,,5.5872,5.7247,5.3017,,5.6289,5.7392,5.7320,232.774,243.9280,249.8509,231.171,259.3007,250.4854,250.1682,0.0388,,0.0697,0.1103, ,, , ,24.2428,,24.2388,,0.7022,83.8994,,,,2.3373E+00,,1.0000E-12,,16.6166,16.6166,0.1322,368.037,95.774,95.111,,,,,,,,,,,,
CalCOFI,2101RL,018,,2101_018d,19-Jan-2021 12:24:05,19-Jan-2021 04:24:05,30.41157,-123.99586,090.0 120.0,090.0,120.0,36.000,36.251,,16.6222,,16.6225,,16.6224,33.2264,,33.2322,33.2212,,33.2232,33.2277,5.3484,,5.5975,5.7353,5.2976,,5.6246,5.7348,5.7351,233.206,244.3802,250.3123,230.991,259.7811,250.2895,250.3009,0.0392,,0.0730,0.1125, ,, , ,24.2428,,24.2387,,0.7023,83.8968,,,,2.0293E+00,,1.0000E-12,,16.6164,16.6167,0.1359,368.071,95.951,95.037,,,,,,,,,,,,
CalCOFI,2101RL,018,,2101_018d,19-Jan-2021 12:24:10,19-Jan-2021 04:24:10,30.41154,-123.99588,090.0 120.0,090.0,120.0,37.000,37.258,,16.6221,,16.6221,,16.6221,33.2265,,33.2323,33.2211,,33.2231,33.2277,5.3491,,5.5983,5.7361,5.2854,,5.6116,5.7215,5.7288,233.237,244.4127,250.3454,230.460,259.8156,249.7118,250.0286,0.0380,,0.0632,0.1060, ,, , ,24.2429,,24.2388,,0.7028,83.8878,,,,1.8065E+00,,1.0000E-12,,16.6161,16.6161,0.1396,368.095,95.964,94.818,,,,,,,,,,,,
CalCOFI,2101RL,018,,2101_018d,19-Jan-2021 12:24:11,19-Jan-2021 04:24:11,30.41154,-123.99588,090.0 120.0,090.0,120.0,38.000,38.265,,16.6230,,16.6237,,16.6234,33.2265,,33.2323,33.2215,,33.2235,33.2279,5.3476,,5.5967,5.7345,5.2887,,5.6151,5.7251,5.7298,233.171,244.3436,250.2749,230.602,259.7422,249.8663,250.0706,0.0390,,0.0714,0.1114, ,, , ,24.2427,,24.2387,,0.7033,83.8768,,,,1.8474E+00,,1.0000E-12,,16.6169,16.6176,0.1433,368.143,95.939,94.879,,,,,,,,,,,,
CalCOFI,2101RL,018,,2101_018d,19-Jan-2021 12:24:12,19-Jan-2021 04:24:12,30.41155,-123.99588,090.0 120.0,090.0,120.0,39.000,39.272,,16.6219,,16.6224,,16.6222,33.2264,,33.2322,33.2212,,33.2232,33.2277,5.3300,,5.5783,5.7157,5.2959,,5.6228,5.7329,5.7243,232.402,243.5386,249.4536,230.917,258.8871,250.2090,249.8313,0.0382,,0.0648,0.1071, ,, , ,24.2430,,24.2389,,0.7033,83.8772,,,,1.8474E+00,,1.0000E-12,,16.6157,16.6161,0.1470,368.152,95.620,95.006,,,,,,,,,,,,
CalCOFI,2101RL,018,,2101_018d,19-Jan-2021 12:24:13,19-Jan-2021 04:24:13,30.41156,-123.99588,090.0 120.0,090.0,120.0,40.000,40.279,,16.6209,,16.6217,,16.6213,33.2263,,33.2321,33.2211,,33.2231,33.2276,5.3370,,5.5856,5.7231,5.3033,,5.6306,5.7410,5.7321,232.708,243.8589,249.7804,231.239,259.2273,250.5593,250.1699,0.0384,,0.0665,0.1082, ,, , ,24.2432,,24.2390,,0.7029,83.8854,,,,1.8474E+00,,1.0000E-12,,16.6144,16.6153,0.1507,368.166,95.744,95.137,,,,,,,,,,,,
CalCOFI,2101RL,018,,2101_018d,19-Jan-2021 12:24:16,19-Jan-2021 04:24:16,30.41155,-123.99588,090.0 120.0,090.0,120.0,41.000,41.286,,16.6224,,16.6221,,16.6223,33.2264,,33.2322,33.2212,,33.2232,33.2277,5.3486,,5.5977,5.7355,5.2856,,5.6118,5.7217,5.7286,233.213,244.3876,250.3197,230.468,259.7889,249.7205,250.0201,0.0400,,0.0796,0.1168, ,, , ,24.2429,,24.2390,,0.7030,83.8836,,,,1.8474E+00,,1.0000E-12,,16.6158,16.6156,0.1555,368.223,95.955,94.821,,,,,,,,,,,,
CalCOFI,2101RL,018,,2101_018d,19-Jan-2021 12:24:18,19-Jan-2021 04:24:18,30.41154,-123.99589,090.0 120.0,090.0,120.0,42.000,42.294,,16.6213,,16.6221,,16.6217,33.2262,,33.2320,33.2212,,33.2232,33.2276,5.3540,,5.6034,5.7413,5.2996,,5.6267,5.7370,5.7392,233.451,244.6367,250.5739,231.079,260.0536,250.3853,250.4796,0.0393,,0.0738,0.1130, ,, , ,24.2431,,24.2391,,0.7038,83.8659,,,,1.8474E+00,,1.0000E-12,,16.6146,16.6153,0.1597,368.243,96.050,95.073,,,,,,,,,,,,
CalCOFI,2101RL,018,,2101_018d,19-Jan-2021 12:24:21,19-Jan-2021 04:24:21,30.41153,-123.99590,090.0 120.0,090.0,120.0,43.000,43.301,,16.6233,,16.6233,,16.6233,33.2265,,33.2323,33.2212,,33.2232,33.2278,5.3535,,5.6029,5.7408,5.2934,,5.6201,5.7302,5.7355,233.430,244.6147,250.5515,230.809,260.0302,250.0915,250.3215,0.0392,,0.0730,0.1125, ,, , ,24.2428,,24.2388,,0.7023,83.8963,,,,1.8474E+00,,1.0000E-12,,16.6164,16.6163,0.1636,368.297,96.046,94.964,,,,,,,,,,,,
CalCOFI,2101RL,018,,2101_018d,19-Jan-2021 12:24:24,19-Jan-2021 04:24:24,30.41152,-123.99590,090.0 120.0,090.0,120.0,44.000,44.308,,16.6245,,16.6252,,16.6249,33.2269,,33.2327,33.2215,,33.2235,33.2281,5.3576,,5.6072,5.7451,5.2866,,5.6129,5.7228,5.7340,233.606,244.7990,250.7394,230.513,260.2259,249.7695,250.2545,0.0393,,0.0738,0.1130, ,, , ,24.2429,,24.2386,,0.7033,83.8770,,,,1.8474E+00,,1.0000E-12,,16.6175,16.6181,0.1674,368.322,96.120,94.846,,,,,,,,,,,,
CalCOFI,2101RL,018,,2101_018d,19-Jan-2021 12:24:25,19-Jan-2021 04:24:25,30.41152,-123.99592,090.0 120.0,090.0,120.0,45.000,45.315,,16.6242,,16.6245,,16.6244,33.2267,,33.2325,33.2215,,33.2235,33.2280,5.3693,,5.6194,5.7576,5.2881,,5.6145,5.7244,5.7410,234.117,245.3339,251.2852,230.579,260.7942,249.8413,250.5633,0.0395,,0.0755,0.1141, ,, , ,24.2429,,24.2388,,0.7033,83.8772,,,,1.8474E+00,,1.0000E-12,,16.6169,16.6172,0.1711,368.355,96.330,94.871,,,,,,,,,,,,
CalCOFI,2101RL,018,,2101_018d,19-Jan-2021 12:24:26,19-Jan-2021 04:24:26,30.41152,-123.99594,090.0 120.0,090.0,120.0,46.000,46.322,,16.6214,,16.6218,,16.6216,33.2262,,33.2320,33.2211,,33.2231,33.2276,5.3504,,5.5996,5.7374,5.2911,,5.6177,5.7277,5.7326,233.293,244.4713,250.4052,230.709,259.8779,249.9827,250.1940,0.0389,,0.0706,0.1109, ,, , ,24.2432,,24.2392,,0.7033,83.8772,,,,1.8474E+00,,1.0000E-12,,16.6140,16.6144,0.1748,368.358,95.985,94.920,,,,,,,,,,,,
CalCOFI,2101RL,018,,2101_018d,19-Jan-2021 12:24:27,19-Jan-2021 04:24:27,30.41152,-123.99594,090.0 120.0,090.0,120.0,47.000,47.329,,16.6204,,16.6205,,16.6205,33.2261,,33.2319,33.2208,,33.2228,33.2274,5.3466,,5.5957,5.7334,5.2901,,5.6166,5.7266,5.7300,233.128,244.2986,250.2290,230.663,259.6944,249.9327,250.0809,0.0389,,0.0706,0.1109, ,, , ,24.2434,,24.2393,,0.7035,83.8734,,,,1.8474E+00,,1.0000E-12,,16.6129,16.6130,0.1786,368.374,95.916,94.898,,,,,,,,,,,,
CalCOFI,2101RL,018,,2101_018d,19-Jan-2021 12:24:31,19-Jan-2021 04:24:31,30.41148,-123.99594,090.0 120.0,090.0,120.0,48.000,48.336,,16.6213,,16.6210,,16.6212,33.2260,,33.2318,33.2209,,33.2229,33.2274,5.3590,,5.6086,5.7466,5.2948,,5.6216,5.7317,5.7392,233.667,244.8628,250.8046,230.870,260.2938,250.1579,250.4813,0.0397,,0.0771,0.1152, ,, , ,24.2432,,24.2392,,0.7030,83.8828,,,,1.8474E+00,,1.0000E-12,,16.6136,16.6133,0.1835,368.429,96.139,94.985,,,,,,,,,,,,
CalCOFI,2101RL,018,,2101_018d,19-Jan-2021 12:24:34,19-Jan-2021 04:24:34,30.41148,-123.99594,090.0 120.0,090.0,120.0,49.000,49.343,,16.6201,,16.6201,,16.6201,33.2260,,33.2318,33.2209,,33.2229,33.2274,5.3525,,5.6018,5.7397,5.2999,,5.6270,5.7373,5.7385,233.385,244.5676,250.5034,231.091,259.9802,250.3983,250.4509,0.0395,,0.0755,0.1141, ,, , ,24.2434,,24.2395,,0.7036,83.8701,,,,1.8474E+00,,1.0000E-12,,16.6122,16.6122,0.1882,368.437,96.021,95.074,,,,,,,,,,,,
CalCOFI,2101RL,018,,2101_018d,19-Jan-2021 12:24:35,19-Jan-2021 04:24:35,30.41146,-123.99592,090.0 120.0,090.0,120.0,50.000,50.350,,16.6202,,16.6205,,16.6204,33.2260,,33.2318,33.2207,,33.2227,33.2273,5.3431,,5.5920,5.7297,5.2995,,5.6266,5.7368,5.7333,232.975,244.1384,250.0656,231.075,259.5243,250.3809,250.2233,0.0394,,0.0746,0.1136, ,, , ,24.2434,,24.2393,,0.7036,83.8714,,,,1.8474E+00,,1.0000E-12,,16.6122,16.6125,0.1919,368.469,95.852,95.068,,,,,,,,,,,,
CalCOFI,2101RL,018,,2101_018d,19-Jan-2021 12:24:37,19-Jan-2021 04:24:37,30.41146,-123.99592,090.0 120.0,090.0,120.0,51.000,51.358,,16.6211,,16.6213,,16.6212,33.2260,,33.2318,33.2208,,33.2228,33.2273,5.3440,,5.5929,5.7306,5.2950,,5.6218,5.7319,5.7313,233.015,244.1803,250.1083,230.879,259.5687,250.1677,250.1380,0.0391,,0.0722,0.1120, ,, , ,24.2433,,24.2392,,0.7028,83.8873,,,,1.8474E+00,,1.0000E-12,,16.6129,16.6130,0.1956,368.517,95.870,94.988,,,,,,,,,,,,
CalCOFI,2101RL,018,,2101_018d,19-Jan-2021 12:24:40,19-Jan-2021 04:24:40,30.41144,-123.99594,090.0 120.0,090.0,120.0,52.000,52.365,,16.6215,,16.6216,,16.6216,33.2260,,33.2318,33.2208,,33.2228,33.2273,5.3433,,5.5922,5.7299,5.2903,,5.6168,5.7268,5.7284,232.983,244.1468,250.0741,230.675,259.5332,249.9457,250.0099,0.0399,,0.0787,0.1162, ,, , ,24.2432,,24.2393,,0.7032,83.8788,,,,1.8474E+00,,1.0000E-12,,16.6132,16.6132,0.1993,368.555,95.858,94.905,,,,,,,,,,,,